This is the latest recevied weather packets stored in our database for station/object N0NAI-13. If no packets are shown the sender has not sent any weather packets the latest 10 day(s).
| Time | Temp. | Humidity | Pressure | Rain* | Wind** | Luminosity | Snow |
|---|---|---|---|---|---|---|---|
| 1777763728 | 20.56° C | 30% | 1015.5 hPa | 0 mm | - | - | - |
| 1777763131 | 21.11° C | 30% | 1015.6 hPa | 0 mm | - | - | - |
| 1777762516 | 21.11° C | 30% | 1015.7 hPa | 0 mm | - | - | - |
| 1777761919 | 21.11° C | 29% | 1015.8 hPa | 0 mm | - | - | - |
| 1777761322 | 20° C | 31% | 1015.8 hPa | 0 mm | - | - | - |
| 1777760719 | 20° C | 32% | 1015.9 hPa | 0 mm | - | - | - |
| 1777760116 | 21.11° C | 30% | 1015.9 hPa | 0 mm | - | - | - |
| 1777759531 | 21.11° C | 31% | 1016.1 hPa | 0 mm | - | - | - |
| 1777758915 | 20° C | 31% | 1016.3 hPa | 0 mm | - | - | - |
| 1777758318 | 20° C | 32% | 1016.4 hPa | 0 mm | - | - | - |
| 1777757721 | 20.56° C | 30% | 1016.4 hPa | 0 mm | - | - | - |
| 1777757124 | 20.56° C | 31% | 1016.5 hPa | 0 mm | - | - | - |
| 1777756526 | 20.56° C | 31% | 1016.7 hPa | 0 mm | - | - | - |
| 1777755929 | 19.44° C | 32% | 1017 hPa | 0 mm | - | - | - |
| 1777755332 | 19.44° C | 32% | 1017.2 hPa | 0 mm | - | - | - |
| 1777754717 | 18.89° C | 32% | 1017.3 hPa | 0 mm | - | - | - |
| 1777754119 | 18.33° C | 32% | 1017.5 hPa | 0 mm | - | - | - |
| 1777753522 | 18.33° C | 32% | 1017.6 hPa | 28.19 mm | - | - | - |
| 1777752925 | 17.22° C | 33% | 1017.7 hPa | 28.19 mm | - | - | - |
| 1777752328 | 18.33° C | 33% | 1017.9 hPa | 28.19 mm | - | - | - |
| 1777751731 | 18.89° C | 33% | 1018.3 hPa | 28.19 mm | - | - | - |
| 1777751116 | 18.33° C | 34% | 1018.3 hPa | 28.19 mm | - | - | - |
| 1777750519 | 17.78° C | 34% | 1018.4 hPa | 28.19 mm | - | - | - |
| 1777749922 | 18.89° C | 34% | 1018.5 hPa | 0 mm | - | - | - |
| 1777749318 | 18.33° C | 33% | 1018.9 hPa | 0 mm | - | - | - |
* Rain latest hour (hover to see other rain measurements)
** Current wind speed in m/s (hover to see current wind gust speed)